Regional Weather Roundup
Issued by NWS Northern Indiana

Home | Current Version | Previous Version | Text Only | Print | Product List | Glossary On
Versions: 1 2 3 4 5 6 7 8 9 10 11 12 13 14 15 16 17 18 19 20 21 22 23 24 25 26 27 28 29 30 31 32 33 34 35 36 37 38 39 40 41 42 43 44 45 46 47 48 49 50
000
ASUS43 KIWX 240200
RWRIWX

KIWX WEATHER ROUNDUP
NATIONAL WEATHER SERVICE NORTHERN INDIANA
1000 PM EDT SAT JUL 23 2016

NOTE: "FAIR" INDICATES FEW OR NO CLOUDS BELOW 12,000 FEET WITH NO
SIGNIFICANT WEATHER AND/OR OBSTRUCTIONS TO VISIBILITY.

* THESE STATIONS ARE NOT UNDER NWS QUALITY CONTROL. THEY ALSO MAY NOT
  REPORT WEATHER SUCH AS PRECIPITATION OR FOG.

INZ001>027-240300-
NORTHERN INDIANA

CITY           SKY/WX    TMP DP  RH WIND       PRES   REMARKS
KNOX*          CLOUDY    79  72  78 N22       30.00R
SOUTH BEND     CLOUDY    75  71  87 W14       30.02R THUNDER
MONTICELLO*    PTCLDY    79  74  86 CALM      29.96R
ANGOLA*          N/A     75  70  83 E3        29.96F
FORT WAYNE     CLOUDY    81  75  82 S5        29.98R
PERU/GRISSOM   MOCLDY    82  77  84 SE2       29.97R

$$
INZ028>050-240300-
CENTRAL INDIANA

CITY           SKY/WX    TMP DP  RH WIND       PRES   REMARKS
LAFAYETTE      PTCLDY    80  77  90 CALM      29.96R
KOKOMO*        MOCLDY    81  72  74 CALM      29.98R
MUNCIE*        PTCLDY    79  74  84 SE3       30.00R
INDIANAPOLIS   PTCLDY    83  72  69 CALM      29.98R

$$
MIZ043>046-050>051-056>058-064>065-071>073-077>080-240300-
SOUTHWEST LOWER MICHIGAN

CITY           SKY/WX    TMP DP  RH WIND       PRES   REMARKS
BATTLE CREEK   CLOUDY    80  65  59 S3        29.98S
BENTON HARBOR  CLOUDY    79  71  76 W7        30.00R
COLDWATER*     CLOUDY    76  74  93 CALM      29.97S
HOLLAND        CLOUDY    79  71  76 SW7       29.97R
GRAND RAPIDS   CLOUDY    82  71  69 S5        29.95S
KALAMAZOO      CLOUDY    80  68  66 S3        29.98R
STURGIS*       MOCLDY    77  72  82 CALM      29.98R
THREE RIVERS*  FAIR      80  72  75 CALM      29.99R

$$
OHZ001>008-015>018-024>025-240300-
NORTHWEST OHIO

CITY           SKY/WX    TMP DP  RH WIND       PRES   REMARKS
DEFIANCE       PTCLDY    80  71  74 CALM      29.97R
FINDLAY        PTCLDY    82  69  64 CALM      29.98R
TOLEDO EXPRESS PTCLDY    80  74  81 CALM      29.97R
TOLEDO METCALF PTCLDY    82  68  62 CALM      29.97R
LIMA           MOCLDY    80  74  81 S3        30.00R

$$
AND FOR LAKE MICHIGAN COASTAL AND OPEN LAKE BUOY OBSERVATIONS

STATION/POSITION TEMP    WIND        PRES    VSBY  WAVE
                 AIR SEA DIR/SP/G                  HT/PER
                 (F)     (DEG/KT/KT) (MB)    (MI)  (FT/S)
CALUMET HARBOR            50/ 13/ 20   N/A
MICHIGAN CITY     74                   N/A
BURNS HARBOR      74     340/ 26     1015.2R
SAINT JOSEPH      81      40/  2/  5 1014.9R
SOUTH LAKE BUOY   77 76  130/  8/ 10 1013.4          0
4 MI NW BRIDGMAN  78 76   20/ 10/ 14 1013.3F         1
MICHIGAN CITY     74 75  330/ 23/ 37   N/A           2/ 3

$$
&&



USA.gov is the U.S. government's official web portal to all federal, state and local government web resources and services.